EW6576 Weather Reports


Display with metric or nautical units.
time (UTC)temp
F
wind
direction
speed
MPH
gust
MPH
rain 1hr
in
rain 24hr
in
rain mn
in
humidity
%
barometer
mb
20260901024148 70 146 4.0 5.0 0.00 0.00 0.00 83 1013.1
20260901023646 70 129 3.0 3.0 0.00 0.00 0.00 82 1013.1
20260901023141 71 138 5.0 7.0 0.00 0.00 0.00 81 1012.8
20260901022636 71 160 1.0 1.0 0.00 0.00 0.00 80 1013.0
20260901022131 71 182 1.0 1.0 0.00 0.00 0.00 79 1012.8
20260901021627 72 107 2.0 2.0 0.00 0.00 0.00 78 1012.9
20260901021122 72 149 1.0 1.0 0.00 0.00 0.00 77 1012.6
20260901020618 72 139 4.0 5.0 0.00 0.00 0.00 76 1012.4
20260901020113 73 138 3.0 3.0 0.00 0.00 0.00 76 1012.6
20260901015608 73 146 3.0 3.0 0.00 0.00 0.00 75 1012.6
20260901015108 73 130 1.0 1.0 0.00 0.00 0.00 75 1012.4
20260901014603 74 137 1.0 2.0 0.00 0.00 0.00 74 1012.3
20260901014059 74 152 1.0 2.0 0.00 0.00 0.00 74 1012.5
20260901013554 75 106 3.0 3.0 0.00 0.00 0.00 73 1012.6
20260901013050 76 130 2.0 3.0 0.00 0.00 0.00 71 1012.5
20260901012550 76 144 1.0 2.0 0.00 0.00 0.00 69 1012.2
20260901012045 76 144 5.0 6.0 0.00 0.00 0.00 68 1012.2
20260901011542 76 150 5.0 6.0 0.00 0.00 0.00 67 1012.6
20260901011039 76 153 4.0 6.0 0.00 0.00 0.00 67 1012.5
20260901010534 77 156 5.0 6.0 0.00 0.00 0.00 66 1012.5
20260901010033 77 124 4.0 5.0 0.00 0.00 0.00 65 1012.7
20260901005528 78 116 3.0 5.0 0.00 0.00 0.00 63 1012.7
20260901005024 78 119 6.0 7.0 0.00 0.00 0.00 62 1012.7
20260901004523 78 105 7.0 8.0 0.00 0.00 0.00 61 1012.6
20260901004018 79 168 2.0 2.0 0.00 0.00 0.00 63 1012.7
20260901003513 79 146 5.0 6.0 0.00 0.00 0.00 61 1012.7
20260901003011 79 109 3.0 3.0 0.00 0.00 0.00 58 1012.6
20260901002506 79 202 4.0 5.0 0.00 0.00 0.00 61 1012.6
20260901002001 80 102 4.0 5.0 0.00 0.00 0.00 60 1012.6
20260901001455 80 172 1.0 2.0 0.00 0.00 0.00 60 1012.5
20260901000951 79 90 3.0 3.0 0.00 0.00 0.00 63 1012.6
20260901000445 80 144 2.0 3.0 0.00 0.00 0.00 63 1012.5
20260831235944 80 122 3.0 3.0 0.00 0.00 0.00 62 1012.8
20260831235440 81 83 3.0 3.0 0.00 0.00 0.00 62 1012.8
20260831234935 81 181 3.0 5.0 0.00 0.00 0.00 61 1012.9
20260831234429 80 172 2.0 2.0 0.00 0.00 0.00 62 1012.7
20260831233925 80 183 3.0 3.0 0.00 0.00 0.00 60 1013.0
20260831233420 81 146 5.0 6.0 0.00 0.00 0.00 60 1012.8
20260831232916 82 183 6.0 8.0 0.00 0.00 0.00 59 1012.7
20260831232411 82 148 7.0 9.0 0.00 0.00 0.00 60 1012.7
20260831231907 82 127 5.0 7.0 0.00 0.00 0.00 59 1012.7
20260831231403 82 126 2.0 2.0 0.00 0.00 0.00 59 1012.6
20260831230859 82 184 2.0 3.0 0.00 0.00 0.00 59 1012.7
20260831230353 82 223 3.0 5.0 0.00 0.00 0.00 59 1013.1
20260831225847 82 86 4.0 6.0 0.00 0.00 0.00 58 1013.1
20260831225343 82 190 4.0 6.0 0.00 0.00 0.00 58 1012.9
20260831224838 81 175 3.0 3.0 0.00 0.00 0.00 60 1012.9
20260831224332 82 186 1.0 1.0 0.00 0.00 0.00 61 1012.9
20260831223827 82 175 2.0 2.0 0.00 0.00 0.00 60 1012.9
20260831223324 82 153 2.0 3.0 0.00 0.00 0.00 60 1013.0
20260831222820 81 198 1.0 2.0 0.00 0.00 0.00 59 1013.0
20260831222316 82 109 9.0 13.0 0.00 0.00 0.00 61 1013.1
20260831221811 82 96 6.0 8.0 0.00 0.00 0.00 60 1013.1
20260831221306 82 169 3.0 3.0 0.00 0.00 0.00 60 1013.3
20260831220806 82 137 5.0 8.0 0.00 0.00 0.00 60 1013.3
20260831220301 84 134 8.0 11.0 0.00 0.00 0.00 58 1013.2
20260831215756 82 64 6.0 7.0 0.00 0.00 0.00 59 1013.2
20260831215252 83 174 0.0 0.0 0.00 0.00 0.00 59 1012.9
20260831214749 83 130 8.0 9.0 0.00 0.00 0.00 57 1013.0
20260831214245 83 172 2.0 2.0 0.00 0.00 0.00 55 1013.2
20260831213741 83 132 4.0 7.0 0.00 0.00 0.00 57 1013.0
20260831213237 82 130 1.0 1.0 0.00 0.00 0.00 57 1013.1
20260831212732 83 130 7.0 9.0 0.00 0.00 0.00 55 1013.2
20260831212229 84 93 6.0 8.0 0.00 0.00 0.00 57 1013.1
20260831211727 84 140 2.0 2.0 0.00 0.00 0.00 58 1013.2
20260831211223 83 187 4.0 6.0 0.00 0.00 0.00 55 1013.5
20260831210723 84 164 7.0 9.0 0.00 0.00 0.00 56 1013.5
20260831210219 83 172 5.0 7.0 0.00 0.00 0.00 54 1013.6
20260831205718 84 102 8.0 9.0 0.00 0.00 0.00 54 1013.5
20260831205214 84 108 8.0 9.0 0.00 0.00 0.00 54 1013.5
20260831204709 83 53 5.0 8.0 0.00 0.00 0.00 56 1013.6
20260831204208 83 100 7.0 8.0 0.00 0.00 0.00 58 1013.5
20260831203707 84 77 4.0 7.0 0.00 0.00 0.00 58 1013.7
20260831203202 84 111 7.0 10.0 0.00 0.00 0.00 54 1013.3
20260831202700 83 113 5.0 8.0 0.00 0.00 0.00 56 1013.6
20260831202155 83 108 7.0 13.0 0.00 0.00 0.00 57 1013.3
20260831201654 83 96 9.0 11.0 0.00 0.00 0.00 56 1013.4
20260831201149 84 148 8.0 10.0 0.00 0.00 0.00 56 1013.5
20260831200645 84 109 2.0 3.0 0.00 0.00 0.00 58 1013.8
20260831200144 84 154 2.0 3.0 0.00 0.00 0.00 56 1013.5
20260831195640 83 168 7.0 8.0 0.00 0.00 0.00 59 1013.7
20260831195135 84 154 6.0 7.0 0.00 0.00 0.00 57 1013.6
20260831194630 83 179 7.0 9.0 0.00 0.00 0.00 59 1013.8
20260831194125 84 173 1.0 2.0 0.00 0.00 0.00 60 1013.6
20260831193620 84 169 5.0 8.0 0.00 0.00 0.00 58 1013.8
20260831193116 84 8 3.0 3.0 0.00 0.00 0.00 59 1013.9
20260831192610 84 134 8.0 9.0 0.00 0.00 0.00 60 1013.8
20260831192106 84 125 5.0 7.0 0.00 0.00 0.00 60 1013.8
20260831191602 84 51 8.0 10.0 0.00 0.00 0.00 60 1013.9
20260831191057 84 142 3.0 5.0 0.00 0.00 0.00 61 1014.0
20260831190552 84 135 6.0 9.0 0.00 0.00 0.00 61 1013.8
20260831190051 84 87 5.0 7.0 0.00 0.00 0.00 60 1013.8
20260831185547 84 62 4.0 6.0 0.00 0.00 0.00 61 1013.8
20260831185042 84 84 6.0 8.0 0.00 0.00 0.00 61 1014.1
20260831184536 83 119 3.0 3.0 0.00 0.00 0.00 62 1013.9
20260831184031 83 149 7.0 9.0 0.00 0.00 0.00 61 1013.9
20260831183530 82 85 2.0 2.0 0.00 0.00 0.00 62 1013.8
20260831183025 83 125 9.0 10.0 0.00 0.00 0.00 60 1013.8
20260831182519 84 122 7.0 9.0 0.00 0.00 0.00 58 1014.0
20260831182015 84 125 3.0 3.0 0.00 0.00 0.00 58 1013.7
20260831181510 84 102 4.0 6.0 0.00 0.00 0.00 57 1013.8
20260831181004 84 127 3.0 5.0 0.00 0.00 0.00 55 1013.9
20260831180459 84 148 2.0 3.0 0.00 0.00 0.00 56 1013.7
20260831175959 83 126 2.0 3.0 0.00 0.00 0.00 58 1014.0
20260831175455 82 3 3.0 3.0 0.00 0.00 0.00 60 1013.8
20260831174950 83 17 1.0 2.0 0.00 0.00 0.00 60 1013.8
20260831174446 81 154 2.0 2.0 0.00 0.00 0.00 62 1013.9
20260831173945 82 85 3.0 5.0 0.00 0.00 0.00 63 1014.0
20260831173444 81 10 1.0 1.0 0.00 0.00 0.00 64 1013.7
20260831172940 82 47 2.0 2.0 0.00 0.00 0.00 63 1013.9
20260831172435 82 20 2.0 3.0 0.00 0.00 0.00 64 1014.0
20260831171930 81 49 1.0 2.0 0.00 0.00 0.00 65 1013.8
20260831171426 81 109 1.0 2.0 0.00 0.00 0.00 66 1013.8
20260831170922 80 183 1.0 1.0 0.00 0.00 0.00 67 1013.5
20260831170418 81 69 2.0 3.0 0.00 0.00 0.00 66 1013.9
20260831165915 80 132 1.0 1.0 0.00 0.00 0.00 68 1013.7
20260831165411 79 133 3.0 5.0 0.00 0.00 0.00 70 1013.7
20260831164907 79 60 2.0 2.0 0.00 0.00 0.00 70 1013.7
20260831164403 78 55 2.0 2.0 0.00 0.00 0.00 71 1013.8
20260831163858 79 175 0.0 1.0 0.00 0.00 0.00 70 1013.9
20260831163354 78 167 0.0 0.0 0.00 0.00 0.00 73 1013.7
20260831162852 77 102 0.0 1.0 0.00 0.00 0.00 73 1013.9
20260831162348 77 110 1.0 1.0 0.00 0.00 0.00 74 1013.9
20260831161846 78 119 2.0 2.0 0.00 0.00 0.00 73 1013.7
20260831161343 77 31 1.0 2.0 0.00 0.00 0.00 73 1013.8
20260831160837 76 176 0.0 1.0 0.00 0.00 0.00 76 1013.8
20260831160332 77 32 3.0 3.0 0.00 0.00 0.00 74 1013.7
20260831155827 76 174 0.0 0.0 0.00 0.00 0.00 76 1013.8
20260831155327 76 186 0.0 0.0 0.00 0.00 0.00 76 1014.1
20260831154822 76 193 0.0 0.0 0.00 0.00 0.00 77 1013.9
20260831154319 75 183 0.0 0.0 0.00 0.00 0.00 78 1013.9
20260831153817 74 135 1.0 1.0 0.00 0.00 0.00 80 1013.8
20260831153313 73 111 0.0 0.0 0.00 0.00 0.00 82 1013.5
20260831152809 73 257 1.0 1.0 0.00 0.00 0.00 83 1013.9
20260831152306 73 188 1.0 1.0 0.00 0.00 0.00 83 1013.8
20260831151800 73 198 1.0 1.0 0.00 0.00 0.00 82 1013.8
20260831151259 72 216 1.0 2.0 0.00 0.00 0.00 84 1013.9
20260831150754 72 163 0.0 0.0 0.00 0.00 0.00 85 1013.7
20260831150250 72 197 1.0 1.0 0.00 0.00 0.00 86 1013.6
20260831145748 71 182 0.0 0.0 0.00 0.00 0.00 87 1013.6
20260831145245 71 205 1.0 2.0 0.00 0.00 0.00 87 1013.5
20260831144740 70 275 1.0 1.0 0.00 0.00 0.00 88 1013.6
20260831144239 70 157 0.0 0.0 0.00 0.00 0.00 89 1013.6
20260831143736 70 110 0.0 1.0 0.00 0.00 0.00 90 1013.7
20260831143231 70 113 1.0 1.0 0.00 0.00 0.00 90 1013.6
20260831142727 70 146 0.0 0.0 0.00 0.00 0.00 90 1013.4
20260831142222 69 160 0.0 0.0 0.00 0.00 0.00 90 1013.6
20260831141721 69 189 0.0 0.0 0.00 0.00 0.00 90 1013.4
20260831141217 69 124 1.0 1.0 0.00 0.00 0.00 91 1013.2
20260831140716 69 157 0.0 0.0 0.00 0.00 0.00 91 1013.1
20260831140211 69 180 0.0 0.0 0.00 0.00 0.00 91 1013.1
20260831135709 69 148 0.0 1.0 0.00 0.00 0.00 91 1013.0
20260831135204 69 180 0.0 0.0 0.00 0.00 0.00 91 1012.9
20260831134700 69 159 0.0 0.0 0.00 0.00 0.00 92 1012.9
20260831134155 69 138 0.0 1.0 0.00 0.00 0.00 91 1013.1
20260831133654 69 172 0.0 0.0 0.00 0.00 0.00 91 1012.7
20260831133144 69 188 0.0 0.0 0.00 0.00 0.00 91 1012.8
20260831132640 69 143 1.0 2.0 0.00 0.00 0.00 91 1012.8
20260831132139 69 181 0.0 0.0 0.00 0.00 0.00 91 1012.6
20260831131634 69 234 1.0 1.0 0.00 0.00 0.00 91 1012.5
20260831131130 69 76 0.0 0.0 0.00 0.00 0.00 91 1012.7
20260831130625 69 102 0.0 1.0 0.00 0.00 0.00 91 1012.5
20260831130121 69 160 0.0 0.0 0.00 0.00 0.00 91 1012.4
20260831125619 69 182 0.0 0.0 0.00 0.00 0.00 91 1012.7
20260831125115 69 164 0.0 0.0 0.00 0.00 0.00 91 1012.8
20260831124611 69 135 0.0 1.0 0.00 0.00 0.00 91 1012.6
20260831124107 69 152 0.0 0.0 0.00 0.00 0.00 92 1012.7
20260831123606 69 162 0.0 1.0 0.00 0.00 0.00 92 1012.7
20260831123100 69 187 0.0 0.0 0.00 0.00 0.00 92 1012.4
20260831122554 69 188 0.0 0.0 0.00 0.00 0.00 92 1012.5
20260831122051 69 188 0.0 0.0 0.00 0.00 0.00 92 1012.6
20260831121550 69 188 0.0 1.0 0.00 0.00 0.00 93 1012.6
20260831121046 69 185 1.0 1.0 0.00 0.00 0.00 93 1012.5
20260831120545 69 188 0.0 0.0 0.00 0.00 0.00 93 1012.5
20260831120041 69 162 0.0 1.0 0.00 0.00 0.00 94 1012.5
20260831115537 69 151 0.0 1.0 0.00 0.00 0.00 94 1012.6
20260831115032 69 139 2.0 2.0 0.00 0.00 0.00 94 1012.4
20260831114531 69 151 1.0 1.0 0.00 0.00 0.00 94 1012.5
20260831114026 69 133 1.0 1.0 0.00 0.00 0.00 94 1012.6
20260831113526 69 152 0.0 0.0 0.00 0.00 0.00 94 1012.5
20260831113022 69 136 0.0 0.0 0.00 0.00 0.00 94 1012.4
20260831112521 69 164 0.0 0.0 0.00 0.00 0.00 94 1012.6
20260831112016 69 173 0.0 0.0 0.00 0.00 0.00 94 1012.4
20260831111512 69 178 0.0 0.0 0.00 0.00 0.00 94 1012.6
20260831111007 69 157 0.0 0.0 0.00 0.00 0.00 94 1012.8
20260831110507 69 158 0.0 0.0 0.00 0.00 0.00 94 1012.6
20260831110002 69 151 1.0 2.0 0.00 0.00 0.00 94 1012.7
20260831105456 69 182 0.0 0.0 0.00 0.00 0.00 94 1012.8
20260831104951 69 182 0.0 0.0 0.00 0.00 0.00 94 1012.5
20260831104448 69 176 1.0 1.0 0.00 0.00 0.00 94 1012.9
20260831103943 69 173 0.0 0.0 0.00 0.00 0.00 94 1012.6
20260831103438 68 173 0.0 0.0 0.00 0.00 0.00 94 1012.7
20260831102934 69 163 0.0 0.0 0.00 0.00 0.00 94 1012.8
20260831102433 68 148 0.0 0.0 0.00 0.00 0.00 94 1012.8
20260831101928 68 148 0.0 1.0 0.00 0.00 0.00 95 1012.5
20260831101423 68 147 1.0 2.0 0.00 0.00 0.00 95 1012.9
20260831100920 68 151 1.0 1.0 0.00 0.00 0.00 95 1012.8
20260831100415 68 144 2.0 2.0 0.00 0.00 0.00 95 1012.6
20260831095910 68 128 2.0 2.0 0.00 0.00 0.00 95 1012.6
20260831095409 68 124 2.0 2.0 0.00 0.00 0.00 95 1012.7
20260831094904 68 132 3.0 3.0 0.00 0.00 0.00 95 1012.5
20260831094400 68 150 0.0 0.0 0.00 0.00 0.00 96 1012.8
20260831093856 68 155 1.0 1.0 0.00 0.00 0.00 96 1012.8
20260831093351 68 158 1.0 2.0 0.00 0.00 0.00 96 1012.6
20260831092848 68 138 2.0 2.0 0.00 0.00 0.00 97 1012.7
20260831092343 68 107 2.0 2.0 0.00 0.00 0.00 97 1012.7
20260831091838 68 126 2.0 2.0 0.00 0.00 0.00 97 1012.5
20260831091333 68 143 1.0 1.0 0.00 0.00 0.00 97 1012.7
20260831090828 67 132 0.0 0.0 0.00 0.00 0.00 98 1012.6
20260831090324 67 132 0.0 0.0 0.00 0.00 0.00 98 1012.5
20260831085820 67 132 0.0 0.0 0.00 0.00 0.00 98 1012.5
20260831085309 66 132 0.0 0.0 0.00 0.00 0.00 97 1012.7
20260831084809 66 132 0.0 0.0 0.00 0.00 0.00 97 1012.8
20260831084306 66 132 0.0 0.0 0.00 0.00 0.00 97 1012.9
20260831083802 66 132 0.0 0.0 0.00 0.00 0.00 97 1013.1
20260831083257 66 132 0.0 0.0 0.00 0.00 0.00 97 1012.7
20260831082756 65 132 0.0 0.0 0.00 0.00 0.00 97 1012.7
20260831082251 65 132 0.0 0.0 0.00 0.00 0.00 97 1012.9
20260831081746 65 132 0.0 0.0 0.00 0.00 0.00 97 1012.6
20260831081242 65 132 0.0 0.0 0.00 0.00 0.00 97 1012.8
20260831080737 65 132 0.0 0.0 0.00 0.00 0.00 97 1012.7
20260831080232 64 132 0.0 0.0 0.00 0.00 0.00 97 1012.9
20260831075728 64 132 0.0 0.0 0.00 0.00 0.00 97 1012.7
20260831075223 64 132 0.0 0.0 0.00 0.00 0.00 96 1012.9
20260831074722 64 132 0.0 0.0 0.00 0.00 0.00 96 1012.8
20260831074216 65 132 0.0 0.0 0.00 0.00 0.00 96 1012.8
20260831073712 65 132 0.0 0.0 0.00 0.00 0.00 96 1012.8
20260831073211 65 132 0.0 0.0 0.00 0.00 0.00 96 1013.0
20260831072706 66 132 0.0 0.0 0.00 0.00 0.00 96 1012.9
20260831072203 65 132 0.0 0.0 0.00 0.00 0.00 96 1013.1
20260831071702 65 132 0.0 0.0 0.00 0.00 0.00 96 1012.8
20260831071156 65 131 1.0 1.0 0.00 0.00 0.00 96 1013.3
20260831070651 65 132 0.0 1.0 0.00 0.00 0.00 96 1012.8
20260831070145 65 133 0.0 1.0 0.00 0.00 0.00 96 1012.9
20260831065644 65 136 0.0 0.0 0.00 0.00 0.00 95 1012.9
20260831065143 66 136 0.0 0.0 0.00 0.00 0.00 95 1012.8
20260831064638 65 133 0.0 0.0 0.00 0.00 0.00 95 1012.8
20260831064133 66 154 0.0 1.0 0.00 0.00 0.00 95 1013.0
20260831063630 66 155 0.0 0.0 0.00 0.00 0.00 95 1012.8
20260831063124 66 155 0.0 0.0 0.00 0.00 0.00 95 1013.0
20260831062619 66 155 0.0 0.0 0.00 0.00 0.00 95 1012.9
20260831062118 67 155 0.0 0.0 0.00 0.00 0.00 95 1012.7
20260831061616 67 155 0.0 0.0 0.00 0.00 0.00 95 1012.7
20260831061107 67 155 0.0 0.0 0.00 0.00 0.00 94 1012.9
20260831060603 67 155 0.0 0.0 0.00 0.00 0.00 94 1012.6
20260831055557 67 154 1.0 1.0 0.00 0.00 0.00 94 1012.5
20260831055052 66 138 0.0 0.0 0.00 0.00 0.00 94 1012.6
20260831054552 66 139 1.0 1.0 0.00 0.00 0.00 93 1012.6
20260831054051 67 144 0.0 0.0 0.00 0.00 0.00 93 1012.8
20260831053550 67 144 0.0 0.0 0.00 0.00 0.00 93 1012.7
20260831053045 68 139 1.0 2.0 0.00 0.00 0.00 92 1012.8
20260831052544 68 193 0.0 0.0 0.00 0.00 0.00 93 1012.7
20260831052043 68 157 0.0 0.0 0.00 0.00 0.00 93 1012.8
20260831051541 68 156 0.0 0.0 0.00 0.00 0.00 93 1012.9
20260831051036 68 155 0.0 0.0 0.00 0.00 0.00 92 1012.7
20260831050535 69 162 0.0 0.0 0.00 0.00 0.00 92 1012.7
20260831050034 69 162 0.0 0.0 0.00 0.00 0.00 92 1012.7
20260831045533 69 162 1.0 1.0 0.00 0.00 0.00 92 1012.9
20260831045029 69 173 0.0 0.0 0.00 0.00 0.00 92 1012.9
20260831044524 70 177 0.0 0.0 0.00 0.00 0.00 92 1012.7
20260831044019 70 151 1.0 1.0 0.00 0.00 0.00 92 1012.4
20260831043519 70 140 0.0 1.0 0.00 0.00 0.00 92 1012.4
20260831043015 70 151 0.0 1.0 0.00 0.00 0.00 91 1012.5
20260831042514 70 136 0.0 1.0 0.00 0.00 0.00 91 1012.5
20260831042009 70 144 1.0 2.0 0.00 0.00 0.00 91 1012.5
20260831041504 70 143 2.0 2.0 0.00 0.00 0.00 91 1012.4
20260831041004 70 151 3.0 5.0 0.00 0.00 0.00 91 1012.4
20260831040459 70 158 1.0 2.0 0.00 0.00 0.00 91 1012.3
20260831035955 71 74 5.0 6.0 0.00 0.00 0.00 91 1012.5
20260831035450 71 126 3.0 3.0 0.00 0.00 0.00 91 1012.2
20260831034945 71 127 1.0 1.0 0.00 0.00 0.00 91 1012.0
20260831034439 71 123 3.0 3.0 0.00 0.00 0.00 90 1011.9
20260831033934 71 177 1.0 2.0 0.00 0.00 0.00 90 1011.9
20260831033430 71 166 0.0 0.0 0.00 0.00 0.00 90 1012.0
20260831032925 71 153 1.0 1.0 0.00 0.00 0.00 90 1011.9
20260831032420 71 132 3.0 3.0 0.00 0.00 0.00 90 1011.8
20260831031915 71 153 3.0 3.0 0.00 0.00 0.00 89 1011.7
20260831031414 71 143 1.0 1.0 0.00 0.00 0.00 89 1011.6
20260831030909 71 104 4.0 5.0 0.00 0.00 0.00 89 1011.9
20260831030408 71 93 2.0 3.0 0.00 0.00 0.00 89 1011.5
20260831025907 72 119 4.0 5.0 0.00 0.00 0.00 88 1011.4
20260831025406 72 134 3.0 3.0 0.00 0.00 0.00 88 1011.6
20260831024902 72 116 4.0 7.0 0.00 0.00 0.00 87 1011.7